Regional Weather Roundup
Issued by NWS Upton, NY

Current Version | Previous Version | Text Only | Print | Product List | Glossary On
Versions: 1 2 3 4 5 6 7 8 9 10 11 12 13 14 15 16 17 18 19 20 21 22 23 24 25 26 27 28 29 30 31 32 33 34 35 36 37 38 39 40 41 42 43 44 45 46 47 48 49 50
312 ASUS41 KOKX 050108 RWROKX REGIONAL WEATHER ROUNDUP NATIONAL WEATHER SERVICE NEW YORK NY 800 PM EST SUN DEC 04 2016 NOTE: "FAIR" INDICATES FEW OR NO CLOUDS BELOW 12,000 FEET WITH NO SIGNIFICANT WEATHER AND/OR OBSTRUCTIONS TO VISIBILITY. NYZ071-072-176-178-NJZ106-104-050200- NEW YORK CITY METRO AREA CITY SKY/WX TMP DP RH WIND PRES REMARKS Central Park CLOUDY 42 25 50 NE7 30.20F Wall St Helipt CLOUDY 44 28 53 NE12 30.19F Bronx Bot Gard NOT AVBL LaGuardia APRT CLOUDY 44 24 45 E12 30.19S Kennedy INTL CLOUDY 40 22 48 E7 30.20S Breezy Point N/A 41 N/A N/A NE8 N/A Newark/Liberty CLOUDY 44 23 43 E6 30.18S Teterboro CLOUDY 41 21 44 NE6 30.18S $$ NYZ177-179-078>081-050200- LONG ISLAND NEW YORK CITY SKY/WX TMP DP RH WIND PRES REMARKS Jones Beach N/A 41 N/A N/A NE12 N/A Matinecock PT NOT AVBL Farmingdale CLOUDY 37 23 56 NE3 30.20S MacArthur/ISP CLOUDY 34 26 72 CALM 30.19F Shirley MOCLDY 32 24 72 CALM 30.21S Westhampton CLOUDY 27 20 75 CALM 30.22S Southampton NOT AVBL Bridgehampton NOT AVBL East Hampton N/A 26 20 79 CALM 30.19F Montauk N/A 34 23 64 NE3 30.20F $$ NYZ052-065-067-050200- HUDSON VALLEY CITY SKY/WX TMP DP RH WIND PRES REMARKS White Plains CLOUDY 35 21 56 NE5 30.17S WCI 31 Newburgh CLOUDY 32 23 69 NE8 30.20S WCI 25 Montgomery CLOUDY 32 22 66 NE6 30.18F WCI 26 Poughkeepsie CLOUDY 30 22 72 CALM 30.20S Albany CLOUDY 25 19 78 CALM 30.21F $$ NJZ001-105-106-008-010-013-015-019>022-104-050200- NEW JERSEY CITY SKY/WX TMP DP RH WIND PRES REMARKS Newark/Liberty CLOUDY 44 23 43 E6 30.18S Teterboro CLOUDY 41 21 44 NE6 30.18S Caldwell CLOUDY 40 24 53 E6 30.19S Somerville CLOUDY 36 28 73 CALM 30.17R Linden N/A N/A N/A N/A CALM 30.19S Sussex CLOUDY 35 23 61 NE9 30.17S WCI 28 Andover N/A 36 26 67 CALM 30.17R Trenton CLOUDY 41 25 53 CALM 30.18S Millville MOCLDY 38 34 85 CALM 30.17F Atlantic City CLOUDY 38 29 70 CALM 30.18S Wrightstown NOT AVBL Toms River CLOUDY 35 30 82 CALM 30.20S Belmar CLOUDY 40 24 53 S3 30.19S $$ PAZ047>061-062-071-050200- EASTERN PENNSYLVANIA CITY SKY/WX TMP DP RH WIND PRES REMARKS Philadelphia CLOUDY 44 29 55 SW3 30.18F Allentown CLOUDY 41 23 48 CALM 30.16S Scranton CLOUDY 36 24 62 E3 30.12F $$ CTZ002-004>006-009-010-012-RIZ004-006-007-MAZ004-011-015-050200- SOUTHERN NEW ENGLAND IN CT CITY SKY/WX TMP DP RH WIND PRES REMARKS Bradley INTL PTCLDY 28 18 66 CALM 30.21S Hartford PTCLDY 30 22 72 NE5 30.21F WCI 25 Danbury CLOUDY 30 22 72 CALM 30.20S Wtrbury/Oxford PTCLDY 32 18 55 N5 30.19S WCI 27 Bridgeport CLOUDY 37 21 52 NW3 30.21S Meriden CLOUDY 29 22 75 CALM 30.20F New Haven CLOUDY 32 23 69 N3 30.20S Chester N/A 34 19 55 N3 30.18F Groton PTCLDY 32 25 75 NE5 30.20F WCI 27 Wilimantic CLOUDY 29 24 82 NE3 30.21F IN RI CITY SKY/WX TMP DP RH WIND PRES REMARKS Providence PTCLDY 30 20 66 W3 30.21R Block Island PTCLDY 36 23 59 N3 30.20F Westerly CLOUDY 29 20 69 CALM 30.21F IN MA CITY SKY/WX TMP DP RH WIND PRES REMARKS Boston CLEAR 35 20 54 N7 30.22R WCI 29 Worcester CLEAR 30 17 58 NW8 30.16S WCI 22 Westfield PTCLDY 26 22 84 CALM 30.20S Provincetown PTCLDY 39 25 57 NW9 30.20R WCI 33 Nantucket CLEAR 32 22 66 W5 30.20R WCI 27 $$ ANZ330-335-338-340-345-350-353-355-050200- COASTAL MARINE OBSERVATIONS STATION/POSITION TIME SKY/WX TEMP WIND PRES VSBY WAVE AIR SEA DIR/SP/G HT/PER (UTC) (F) (DEG/KT/KT) (MB) (MI) (FT/S) NY HARB ENTRANCE 2350 45 54 70/ 8/ 10 1022.3 1/ 9 20 S FIRE ISLAND 2350 43 53 30/ 6/ 8 1022.4 1/ 3 GREAT SOUTH BAY 0030 40 44 N/A 23 SSW MONTAUK P 0050 42 55 10/ 6/ 8 1023.0 1/ 8 15 E BARNEGAT LI 0030 54 N/A 1/10 HUDSON CANYON 2350 44 58 1022.8 2/ 5 KINGS POINT 0024 40 48 1022.4 EXECUTION ROCKS 0045 42 50/ 10/ 12 N/A CENTRAL LI SOUND 0030 40 51 360/ 12/ 14 N/A 1/ 2 EASTERN LI SOUND NOT AVBL ROBBINS REEF 0024 43 100/ 10/ 11 1022.5 $$ >>>>>>>>>>>>>>>>>>>>>>>>>>>> KEY <<<<<<<<<<<<<<<<<<<<<<<<<<< > < > SKY/WX - Sky Condition/Present Weather < > TMP - Temperature in Fahrenheit < > DP - Dew Point in Fahrenheit < > RH - Relative Humidity in Percent < > WIND - Direction (from) and Speed in MPH < > PRES - Mean Sea Level Pressure (inches of Hg) < > WCI - Wind Chill Index < > VSB - VISIBILITY IN MILES < > HX - HEAT INDEX < > TC - TEMPERATURE IN CELSIUS < > VRB - VARIABLE WIND DIRECTION < > < >>>>>>>>>>>>>>>>>>>>>>>>>>>> KEY <<<<<<<<<<<<<<<<<<<<<<<<<<<

USA.gov is the U.S. government's official web portal to all federal, state and local government web resources and services.